Meteo Giornale » Osservazioni meteo Gran Bretagna » Birmingham-AP

ore: 14:20 - Osservazioni Meteo Birmingham-AP
Lat. 52° 27' N Lon. 1° 44' W Alt. 99 metri s.l.m.

molto_nuvoloso Europe/London

15 °C

Rovescio nelle Vicinanze

Temp. 24 Ore

9 °C

17 °C

Sud

20.3 Km/h

Dew point 11 °C

Umidità 76 %

Visibilità  10 Km

Il sole sorge alle ore 07:01

Il sole tramonta alle ore 18:53

Data e Ora Cielo e Fenomeni T °C DP °C Um. % Pres. hPa Vis. km Vento km/h
Oggi h: 14:20 molto_nuvoloso Rovescio nelle Vicinanze 15 11 76 1011 10 S 20.3
Oggi h: 13:50 molto_nuvoloso Molto Nuvoloso 16 10 67 1011 10 S 22.2
Oggi h: 13:20 molto_nuvoloso Molto Nuvoloso 16 10 67 1012 10 S 22.2
Oggi h: 12:50 molto_nuvoloso Molto Nuvoloso 17 11 67 1012 10 S 20.3
Oggi h: 12:20 molto_nuvoloso Molto Nuvoloso 16 10 67 1013 10 S 24
Oggi h: 11:50 molto_nuvoloso Molto Nuvoloso 16 10 67 1013 10 S 20.3
Oggi h: 11:20 nuvoloso Nuvoloso 16 11 72 1014 10 S 25.9
Oggi h: 10:50 poco_nuvoloso Poco Nuvoloso 15 11 76 1014 10 S 16.7
Oggi h: 10:20 poco_nuvoloso Poco Nuvoloso 14 11 82 1014 10 S 16.7
Oggi h: 09:50 poco_nuvoloso Poco Nuvoloso 13 10 81 1015 10 S 16.7
Oggi h: 09:20 sereno Sereno 13 10 81 1015 10 S 16.7
Oggi h: 08:50 sereno Sereno 12 10 87 1015 10 S 13
Oggi h: 08:20 sereno Sereno 11 10 93 1015 10 S/SE 13
Oggi h: 07:50 sereno Sereno 10 9 93 1015 10 S 11.1
Oggi h: 07:20 sereno Sereno 10 9 93 1015 10 S/SE 9.3
Oggi h: 06:50 sereno Sereno 9 8 93 1016 10 S/SE 9.3
Oggi h: 06:20 sereno Sereno 10 8 87 1016 10 S 9.3
Oggi h: 05:50 sereno Sereno 10 8 87 1015 10 S 9.3
Oggi h: 04:50 sereno Sereno 10 9 93 1016 10 S 11.1
Oggi h: 04:20 sereno Sereno 10 8 87 1016 10 S 11.1
Oggi h: 03:50 sereno Sereno 10 8 87 1016 10 S 11.1
Oggi h: 03:20 sereno Sereno 10 8 87 1016 10 S 11.1
Oggi h: 02:50 sereno Sereno 9 8 93 1016 10 S 9.3
Oggi h: 02:20 sereno Sereno 10 8 87 1016 10 S 7.4
Oggi h: 01:50 sereno Sereno 10 9 93 1016 10 S/SO 11.1
Oggi h: 01:20 sereno Sereno 11 9 87 1016 10 S/SO 13
Oggi h: 00:50 sereno Sereno 10 9 93 1016 10 S 11.1
Oggi h: 00:20 sereno Sereno 10 9 93 1016 10 S 11.1
Ieri h: 23:50 sereno Sereno 11 9 87 1016 10 S 13
Ieri h: 23:20 sereno Sereno 10 9 93 1016 10 S/SO 13
Ieri h: 22:50 sereno Sereno 10 8 87 1016 10 S 11.1
Ieri h: 22:20 sereno Sereno 11 8 81 1015 10 S/SO 9.3
Ieri h: 21:50 sereno Sereno 11 9 87 1015 10 S/SO 9.3
Ieri h: 21:20 sereno Sereno 10 9 93 1015 10 N 3.7
Ieri h: 20:50 poco_nuvoloso Poco Nuvoloso 9 9 100 1014 10 N 5.5
Ieri h: 20:20 nuvoloso Nuvoloso 10 9 93 1014 10 S 7.4
Ieri h: 19:50 coperto_pioggia Pioggia 11 9 87 1014 2 O/SO 13
Ieri h: 19:20 nuvoloso Nuvoloso 13 8 71 1013 10 S 13
Ieri h: 18:50 sereno Sereno 14 7 62 1013 10 S 9.3
Ieri h: 18:20 sereno Sereno 14 6 58 1012 10 SO 14.8
Ieri h: 17:50 sereno Sereno 15 6 54 1012 10 O/SO 11.1
Ieri h: 17:20 poco_nuvoloso Poco Nuvoloso 15 6 54 1012 10 O/SO 16.7
Ieri h: 16:50 poco_nuvoloso Poco Nuvoloso 16 8 58 1011 10 SO 14.8
Ieri h: 16:20 poco_nuvoloso Poco Nuvoloso 15 8 62 1011 10 O/SO 18.5
Ieri h: 15:50 poco_nuvoloso Poco Nuvoloso 15 8 62 1011 10 SO 20.3
Ieri h: 15:20 nuvoloso Nuvoloso 14 10 76 1010 10 SO 13
Ieri h: 14:50 nuvoloso Nuvoloso 13 10 81 1010 10 O 13